{"data":{"norad_id":26107,"intl_designator":"2000-016A","name":"ASIASTAR","alt_names":[],"object_type":"PAYLOAD","status":"ACTIVE","operator":null,"country":"US","launch_date":"2000-03-21","launch_site_code":"FRGUI","launch_vehicle":null,"mission":null,"orbit_class":"UNKNOWN","rcs_meters":25.1188,"size_class":null,"mass_kg":null,"dimensions":null,"purposes":["comms"],"wikipedia_slug":null,"has_3d_model":false,"image_url":null,"decayed_at":null,"tle_current":{"epoch":"2026-09-19T21:26:53.926944Z","epoch_age_seconds":64098,"freshness":"FRESH","line1":"1 26107U 00016A   26262.89367971 -.00000335  00000+0  00000+0 0  9991","line2":"2 26107   9.3459  57.1109 0003891 123.0568 245.3827  1.00272998 96876","mean_motion":1.00272998,"eccentricity":0.0003891,"inclination_deg":9.3459,"raan_deg":57.1109,"arg_perigee_deg":123.0568,"mean_anomaly_deg":245.3827,"bstar":0,"rev_number":9687,"period_min":1436.0795316003,"perigee_km":35769.848751791,"apogee_km":35802.66108158,"semimajor_km":42164.391916685,"source":"CELESTRAK","updated_at":"2026-09-20T09:00:35.117448Z"}}}